User: anonymous   Login
Location: Caltech
(34.1382°N, 118.1253°W)
Time: 18:52:31
(UTC-08:00)
Language:

Cosmos 1937 Rocket - Orbit

View from above orbital plane
View from above orbital plane
View from above satellite
View from above satellite

Ground track
Ground track

The orbit data is extracted from the following two-line orbital elements,

1 19039U 88029B   17051.24386921  .00000013  00000-0  12738-4 0  9997
2 19039  74.0491 154.7758 0023902 354.0603  32.7006 14.38346310514048
Epoch (UTC): 20 February 2017 05:51:10
Eccentricity: 0.0023902
inclination: 74.0491°
perigee height: 747 km
apogee height: 781 km
right ascension of ascending node: 154.7758°
argument of perigee: 354.0603°
revolutions per day: 14.38346310
mean anomaly at epoch: 32.7006°
orbit number at epoch: 51404

The dashed part of the orbit path shows where the satellite is in the earth's shadow,  

DLR